Etusivu
METAR-TAF:

METAR-TAF

Lentoasemat :

Tahoua, Niger

Leveyspiiri: 14-54N, Pituuspiiri: 005-15E, korkeus merenpinnasta: 386 m

Tämänhetkinen sää

Tämä raportti tehtiin 10 tuntia ja 15 minuuttia sitten, kello 18.00 UTC
Tuuli 2 kn idästä/koillisesta
Lämpötila 32°C
Kosteus 20%
Ilmanpaine 1013 hPa
Näkyvyys 10 km tai enemmän
ei pilviä alle 1500 m:ssä eikä cumulonimbus-pilviä

METAR: DRRT 201800Z 06002KT CAVOK 32/06 Q1013

Aika: 05:15 (04:15 UTC)


TAF: puuttuu

Säähavainnot ja -ennusteet yli 4000 lentoasemalta (METAR- ja TAF-raportit).

Käytössä olevat sääasemat on merkitty karttaan keltaisilla ja punaisilla pisteillä.

Aseta hiiri pisteen päälle nähdäksesi sääaseman nimen.

Klikkaa sitten nähdäksesi säähavainnot ja -ennusteet.

Kartan vaihtaminen: klikkaa mustalla rastilla varustettuja vihreitä pisteitä, niin voit zoomata sisään; viivalla varustettua vihreää pistettä, niin voit zoomata ulos tai vihreitä nuolia, niin pääset viereisille kartoille.


METAR-TAF: